Data No,UTC Date,UTC Time,Latitude,Longitude,Course(deg),Temp(degC),Sal(psu)
543,2023/1/6,9:02,42-36.88N,141-36.93E,220,4.734,
544,2023/1/6,9:03,42-36.68N,141-36.72E,216,5.105,
545,2023/1/6,9:04,42-36.46N,141-36.50E,216,6.032,
546,2023/1/6,9:05,42-36.24N,141-36.27E,218,6.395,
547,2023/1/6,9:06,42-36.02N,141-36.03E,219,6.562,
548,2023/1/6,9:07,42-35.81N,141-35.81E,218,6.67,
549,2023/1/6,9:08,42-35.59N,141-35.57E,218,6.683,
550,2023/1/6,9:09,42-35.38N,141-35.34E,218,6.712,
551,2023/1/6,9:10,42-35.16N,141-35.12E,212,6.747,
552,2023/1/6,9:11,42-34.91N,141-35.05E,184,6.802,
553,2023/1/6,9:12,42-34.65N,141-35.05E,179,6.819,
554,2023/1/6,9:13,42-34.37N,141-35.04E,180,6.839,
555,2023/1/6,9:14,42-34.09N,141-35.04E,180,6.863,
556,2023/1/6,9:15,42-33.81N,141-35.04E,180,6.877,
557,2023/1/6,9:16,42-33.52N,141-35.03E,181,6.936,
558,2023/1/6,9:17,42-33.24N,141-35.02E,181,6.969,
559,2023/1/6,9:18,42-32.95N,141-35.01E,181,6.96,
560,2023/1/6,9:19,42-32.66N,141-35.00E,181,6.935,
561,2023/1/6,9:20,42-32.39N,141-35.00E,180,6.956,
562,2023/1/6,9:21,42-32.11N,141-35.00E,180,7.027,
563,2023/1/6,9:22,42-31.82N,141-34.99E,181,7.001,
564,2023/1/6,9:23,42-31.53N,141-34.99E,180,7.466,
565,2023/1/6,9:24,42-31.27N,141-34.99E,180,7.764,
566,2023/1/6,9:25,42-30.99N,141-34.99E,180,7.873,
567,2023/1/6,9:26,42-30.70N,141-34.99E,180,7.942,
568,2023/1/6,9:27,42-30.43N,141-34.98E,181,7.97,
569,2023/1/6,9:28,42-30.14N,141-34.95E,184,7.966,
570,2023/1/6,9:29,42-29.87N,141-34.91E,185,7.919,
571,2023/1/6,9:30,42-29.58N,141-34.88E,186,7.857,
572,2023/1/6,9:31,42-29.26N,141-34.83E,186,7.794,
573,2023/1/6,9:32,42-28.98N,141-34.79E,186,7.745,
574,2023/1/6,9:33,42-28.73N,141-34.76E,186,7.723,
575,2023/1/6,9:34,42-28.45N,141-34.71E,186,7.688,
576,2023/1/6,9:35,42-28.17N,141-34.67E,186,7.608,
577,2023/1/6,9:36,42-27.87N,141-34.63E,186,7.593,
578,2023/1/6,9:37,42-27.60N,141-34.58E,187,7.61,
579,2023/1/6,9:38,42-27.31N,141-34.54E,187,7.641,
580,2023/1/6,9:39,42-27.02N,141-34.49E,187,7.676,
581,2023/1/6,9:40,42-26.76N,141-34.46E,183,7.691,
582,2023/1/6,9:41,42-26.47N,141-34.44E,182,7.709,
583,2023/1/6,9:42,42-26.18N,141-34.42E,182,7.556,
584,2023/1/6,9:43,42-25.91N,141-34.40E,182,7.506,
585,2023/1/6,9:44,42-25.63N,141-34.39E,183,7.5,
586,2023/1/6,9:45,42-25.35N,141-34.36E,183,7.506,
587,2023/1/6,9:46,42-25.06N,141-34.34E,183,7.52,
588,2023/1/6,9:47,42-24.78N,141-34.32E,183,7.554,
589,2023/1/6,9:48,42-24.49N,141-34.29E,183,7.559,
590,2023/1/6,9:49,42-24.21N,141-34.27E,184,7.573,
591,2023/1/6,9:50,42-23.93N,141-34.24E,183,7.598,
592,2023/1/6,9:51,42-23.64N,141-34.22E,183,7.633,
593,2023/1/6,9:52,42-23.37N,141-34.19E,183,7.66,
594,2023/1/6,9:53,42-23.08N,141-34.17E,183,7.677,
595,2023/1/6,9:54,42-22.80N,141-34.15E,184,7.681,
596,2023/1/6,9:55,42-22.52N,141-34.12E,183,7.683,
597,2023/1/6,9:56,42-22.24N,141-34.10E,183,7.705,
598,2023/1/6,9:57,42-21.96N,141-34.07E,184,7.705,
599,2023/1/6,9:58,42-21.68N,141-34.04E,186,7.591,
600,2023/1/6,9:59,42-21.39N,141-33.99E,188,7.506,
601,2023/1/6,10:00,42-21.12N,141-33.93E,188,7.486,
602,2023/1/6,10:01,42-20.83N,141-33.88E,188,7.473,
603,2023/1/6,10:02,42-20.55N,141-33.82E,188,7.468,
604,2023/1/6,10:03,42-20.27N,141-33.77E,188,7.462,
605,2023/1/6,10:04,42-19.99N,141-33.71E,188,7.462,
606,2023/1/6,10:05,42-19.71N,141-33.66E,188,7.456,
607,2023/1/6,10:06,42-19.42N,141-33.60E,188,7.458,
608,2023/1/6,10:07,42-19.14N,141-33.55E,188,7.453,
609,2023/1/6,10:08,42-18.86N,141-33.49E,188,7.453,
610,2023/1/6,10:09,42-18.57N,141-33.46E,182,7.461,
611,2023/1/6,10:10,42-18.29N,141-33.47E,176,7.482,
612,2023/1/6,10:11,42-18.01N,141-33.50E,174,7.507,
613,2023/1/6,10:12,42-17.73N,141-33.55E,173,7.501,
614,2023/1/6,10:13,42-17.45N,141-33.59E,173,7.47,
615,2023/1/6,10:14,42-17.16N,141-33.64E,173,7.454,
616,2023/1/6,10:15,42-16.88N,141-33.70E,170,7.347,
617,2023/1/6,10:16,42-16.58N,141-33.76E,171,6.818,
618,2023/1/6,10:17,42-16.28N,141-33.81E,174,6.69,
619,2023/1/6,10:18,42-16.00N,141-33.84E,176,6.585,
620,2023/1/6,10:19,42-15.69N,141-33.87E,176,6.485,
621,2023/1/6,10:20,42-15.40N,141-33.89E,177,6.451,
622,2023/1/6,10:21,42-15.10N,141-33.91E,177,6.423,
623,2023/1/6,10:22,42-14.81N,141-33.93E,177,6.411,
624,2023/1/6,10:23,42-14.52N,141-33.95E,177,6.394,
625,2023/1/6,10:24,42-14.22N,141-33.97E,177,6.383,
626,2023/1/6,10:25,42-13.93N,141-33.99E,177,6.379,
627,2023/1/6,10:26,42-13.63N,141-34.01E,177,6.377,
628,2023/1/6,10:27,42-13.33N,141-34.03E,178,6.384,
629,2023/1/6,10:28,42-13.04N,141-34.04E,177,6.382,
630,2023/1/6,10:29,42-12.74N,141-34.06E,178,6.408,
631,2023/1/6,10:30,42-12.45N,141-34.07E,178,6.431,
632,2023/1/6,10:31,42-12.16N,141-34.08E,178,6.504,
633,2023/1/6,10:32,42-11.84N,141-34.10E,178,6.567,
634,2023/1/6,10:33,42-11.57N,141-34.11E,178,6.644,
635,2023/1/6,10:34,42-11.27N,141-34.12E,178,6.672,
636,2023/1/6,10:35,42-10.98N,141-34.13E,178,6.683,
637,2023/1/6,10:36,42-10.69N,141-34.14E,178,6.7,
638,2023/1/6,10:37,42-10.39N,141-34.15E,178,6.67,
639,2023/1/6,10:38,42-10.10N,141-34.16E,178,6.654,
640,2023/1/6,10:39,42-09.80N,141-34.17E,178,6.671,
641,2023/1/6,10:40,42-09.51N,141-34.18E,178,6.703,
642,2023/1/6,10:41,42-09.21N,141-34.19E,179,6.761,
643,2023/1/6,10:42,42-08.92N,141-34.20E,178,6.817,
644,2023/1/6,10:43,42-08.64N,141-34.22E,176,6.944,
645,2023/1/6,10:44,42-08.35N,141-34.24E,177,6.916,
646,2023/1/6,10:45,42-08.06N,141-34.25E,177,6.977,
647,2023/1/6,10:46,42-07.78N,141-34.27E,177,7.131,
648,2023/1/6,10:47,42-07.48N,141-34.29E,177,7.245,
649,2023/1/6,10:48,42-07.21N,141-34.30E,177,7.218,
650,2023/1/6,10:49,42-06.90N,141-34.32E,177,7.154,
651,2023/1/6,10:50,42-06.63N,141-34.33E,178,7.159,
652,2023/1/6,10:51,42-06.34N,141-34.35E,177,7.193,
653,2023/1/6,10:52,42-06.05N,141-34.36E,177,7.093,
654,2023/1/6,10:53,42-05.76N,141-34.38E,177,7.063,
655,2023/1/6,10:54,42-05.48N,141-34.40E,177,7.026,
656,2023/1/6,10:55,42-05.19N,141-34.41E,177,6.984,
657,2023/1/6,10:56,42-04.90N,141-34.43E,177,6.961,
658,2023/1/6,10:57,42-04.60N,141-34.44E,177,6.901,
659,2023/1/6,10:58,42-04.32N,141-34.46E,178,6.79,
660,2023/1/6,10:59,42-04.02N,141-34.46E,180,6.524,
661,2023/1/6,11:00,42-03.72N,141-34.46E,181,6.312,
662,2023/1/6,11:01,42-03.44N,141-34.45E,180,6.124,
663,2023/1/6,11:02,42-03.14N,141-34.45E,180,6.386,
664,2023/1/6,11:03,42-02.86N,141-34.45E,180,6.488,
665,2023/1/6,11:04,42-02.56N,141-34.46E,180,6.579,
666,2023/1/6,11:05,42-02.27N,141-34.45E,180,6.535,
667,2023/1/6,11:06,42-01.97N,141-34.45E,180,6.146,
668,2023/1/6,11:07,42-01.68N,141-34.45E,180,5.885,
669,2023/1/6,11:08,42-01.40N,141-34.45E,180,5.746,
670,2023/1/6,11:09,42-01.10N,141-34.45E,180,5.713,
671,2023/1/6,11:10,42-00.82N,141-34.45E,179,5.692,
672,2023/1/6,11:11,42-00.52N,141-34.45E,179,5.655,
673,2023/1/6,11:12,42-00.23N,141-34.45E,180,5.637,
674,2023/1/6,11:13,41-59.95N,141-34.45E,180,5.693,
675,2023/1/6,11:14,41-59.65N,141-34.45E,179,5.749,
676,2023/1/6,11:15,41-59.35N,141-34.45E,180,5.883,
677,2023/1/6,11:16,41-59.07N,141-34.45E,180,6.047,
678,2023/1/6,11:17,41-58.77N,141-34.45E,180,6.173,
679,2023/1/6,11:18,41-58.48N,141-34.45E,179,6.45,
680,2023/1/6,11:19,41-58.18N,141-34.45E,180,6.685,
681,2023/1/6,11:20,41-57.90N,141-34.45E,179,7.012,
682,2023/1/6,11:21,41-57.61N,141-34.45E,180,7.208,
683,2023/1/6,11:22,41-57.32N,141-34.45E,180,7.304,
684,2023/1/6,11:23,41-57.03N,141-34.45E,179,7.369,
685,2023/1/6,11:24,41-56.73N,141-34.46E,179,7.469,
686,2023/1/6,11:25,41-56.44N,141-34.46E,179,7.501,
687,2023/1/6,11:26,41-56.16N,141-34.47E,179,7.439,
688,2023/1/6,11:27,41-55.86N,141-34.47E,179,7.238,
689,2023/1/6,11:28,41-55.56N,141-34.48E,179,7.143,
690,2023/1/6,11:29,41-55.28N,141-34.48E,179,7.053,
691,2023/1/6,11:30,41-54.99N,141-34.48E,179,6.981,
692,2023/1/6,11:31,41-54.70N,141-34.48E,180,6.942,
693,2023/1/6,11:32,41-54.41N,141-34.47E,181,6.92,
694,2023/1/6,11:33,41-54.12N,141-34.46E,181,6.914,
695,2023/1/6,11:34,41-53.82N,141-34.45E,182,6.916,
696,2023/1/6,11:35,41-53.55N,141-34.44E,182,6.958,
697,2023/1/6,11:36,41-53.26N,141-34.42E,182,7.028,
698,2023/1/6,11:37,41-52.96N,141-34.41E,181,6.992,
699,2023/1/6,11:38,41-52.68N,141-34.41E,180,7.046,
700,2023/1/6,11:39,41-52.39N,141-34.41E,180,7.055,
701,2023/1/6,11:40,41-52.11N,141-34.40E,180,7.054,
702,2023/1/6,11:41,41-51.82N,141-34.40E,180,7.07,
703,2023/1/6,11:42,41-51.53N,141-34.39E,180,7.082,
704,2023/1/6,11:43,41-51.25N,141-34.39E,180,7.096,
705,2023/1/6,11:44,41-50.96N,141-34.39E,180,7.098,
706,2023/1/6,11:45,41-50.68N,141-34.39E,180,7.113,
707,2023/1/6,11:46,41-50.39N,141-34.38E,180,7.097,
708,2023/1/6,11:47,41-50.10N,141-34.38E,180,7.052,
709,2023/1/6,11:48,41-49.82N,141-34.37E,180,7.062,
710,2023/1/6,11:49,41-49.51N,141-34.37E,180,7.066,
711,2023/1/6,11:50,41-49.23N,141-34.37E,180,7.004,
712,2023/1/6,11:51,41-48.94N,141-34.36E,180,6.973,
713,2023/1/6,11:52,41-48.64N,141-34.36E,181,6.965,
714,2023/1/6,11:53,41-48.36N,141-34.35E,180,6.952,
715,2023/1/6,11:54,41-48.06N,141-34.32E,186,6.926,
716,2023/1/6,11:55,41-47.78N,141-34.24E,194,6.904,
717,2023/1/6,11:56,41-47.50N,141-34.12E,197,6.887,
718,2023/1/6,11:57,41-47.21N,141-34.01E,196,6.839,
719,2023/1/6,11:58,41-46.94N,141-33.90E,196,6.818,
720,2023/1/6,11:59,41-46.66N,141-33.79E,197,6.809,
721,2023/1/6,12:00,41-46.39N,141-33.68E,197,6.832,
722,2023/1/6,12:01,41-46.12N,141-33.56E,196,6.881,
723,2023/1/6,12:02,41-45.84N,141-33.45E,197,6.917,
724,2023/1/6,12:03,41-45.57N,141-33.34E,197,6.991,
725,2023/1/6,12:04,41-45.28N,141-33.22E,196,7.086,
726,2023/1/6,12:05,41-45.02N,141-33.12E,196,7.02,
727,2023/1/6,12:06,41-44.74N,141-33.02E,194,6.879,
728,2023/1/6,12:07,41-44.45N,141-32.93E,191,6.838,
729,2023/1/6,12:08,41-44.18N,141-32.86E,191,6.839,
730,2023/1/6,12:09,41-43.89N,141-32.78E,190,6.827,
731,2023/1/6,12:10,41-43.60N,141-32.72E,189,7.033,
732,2023/1/6,12:11,41-43.33N,141-32.66E,187,7.961,
733,2023/1/6,12:12,41-43.06N,141-32.62E,186,10.098,
734,2023/1/6,12:13,41-42.79N,141-32.58E,187,10.768,
735,2023/1/6,12:14,41-42.51N,141-32.54E,187,10.97,
736,2023/1/6,12:15,41-42.24N,141-32.49E,187,11.045,
737,2023/1/6,12:16,41-41.97N,141-32.45E,187,11.099,
738,2023/1/6,12:17,41-41.69N,141-32.40E,187,11.119,
739,2023/1/6,12:18,41-41.42N,141-32.36E,186,11.148,
740,2023/1/6,12:19,41-41.14N,141-32.31E,187,11.165,
741,2023/1/6,12:20,41-40.86N,141-32.27E,186,11.144,
742,2023/1/6,12:21,41-40.57N,141-32.23E,185,11.117,
743,2023/1/6,12:22,41-40.29N,141-32.21E,181,11.072,
744,2023/1/6,12:23,41-40.00N,141-32.22E,178,11.08,
745,2023/1/6,12:24,41-39.70N,141-32.24E,176,11.127,
746,2023/1/6,12:25,41-39.42N,141-32.26E,176,11.15,
747,2023/1/6,12:26,41-39.13N,141-32.28E,176,11.132,
748,2023/1/6,12:27,41-38.83N,141-32.31E,176,11.094,
749,2023/1/6,12:28,41-38.54N,141-32.34E,174,10.966,
750,2023/1/6,12:29,41-38.25N,141-32.38E,174,10.964,
751,2023/1/6,12:30,41-37.95N,141-32.43E,173,10.98,
752,2023/1/6,12:31,41-37.65N,141-32.48E,171,10.983,
753,2023/1/6,12:32,41-37.35N,141-32.55E,170,10.976,
754,2023/1/6,12:33,41-37.04N,141-32.61E,170,10.988,
755,2023/1/6,12:34,41-36.75N,141-32.68E,170,10.98,
756,2023/1/6,12:35,41-36.45N,141-32.75E,170,10.979,
757,2023/1/6,12:36,41-36.15N,141-32.82E,170,10.991,
758,2023/1/6,12:37,41-35.84N,141-32.88E,170,11.018,
759,2023/1/6,12:38,41-35.54N,141-32.95E,171,11.025,
760,2023/1/6,12:39,41-35.24N,141-33.01E,171,11.011,
761,2023/1/6,12:40,41-34.94N,141-33.07E,171,11.016,
762,2023/1/6,12:41,41-34.63N,141-33.13E,171,11.004,
763,2023/1/6,12:42,41-34.32N,141-33.20E,171,11.017,
764,2023/1/6,12:43,41-34.03N,141-33.25E,172,11.031,
765,2023/1/6,12:44,41-33.72N,141-33.31E,172,11.023,
766,2023/1/6,12:45,41-33.41N,141-33.36E,172,11.021,
767,2023/1/6,12:46,41-33.11N,141-33.41E,172,11.024,
768,2023/1/6,12:47,41-32.80N,141-33.46E,173,11.02,
769,2023/1/6,12:48,41-32.51N,141-33.51E,172,11.031,
770,2023/1/6,12:49,41-32.20N,141-33.57E,173,11.044,
771,2023/1/6,12:50,41-31.89N,141-33.61E,174,11.069,
772,2023/1/6,12:51,41-31.59N,141-33.65E,173,11.076,
773,2023/1/6,12:52,41-31.28N,141-33.70E,173,11.082,
774,2023/1/6,12:53,41-30.97N,141-33.75E,173,11.096,
775,2023/1/6,12:54,41-30.68N,141-33.79E,173,11.109,
776,2023/1/6,12:55,41-30.37N,141-33.84E,174,11.072,
777,2023/1/6,12:56,41-30.07N,141-33.87E,175,11.038,
778,2023/1/6,12:57,41-29.77N,141-33.91E,174,11.045,
779,2023/1/6,12:58,41-29.46N,141-33.96E,172,11.14,
780,2023/1/6,12:59,41-29.18N,141-34.02E,171,11.348,
781,2023/1/6,13:00,41-28.88N,141-34.08E,171,11.384,
782,2023/1/6,13:01,41-28.59N,141-34.13E,171,11.406,
783,2023/1/6,13:02,41-28.30N,141-34.18E,172,11.445,
784,2023/1/6,13:03,41-28.00N,141-34.24E,171,11.471,
785,2023/1/6,13:04,41-27.72N,141-34.30E,171,11.478,
786,2023/1/6,13:05,41-27.43N,141-34.36E,171,11.489,
787,2023/1/6,13:06,41-27.13N,141-34.42E,171,11.511,
788,2023/1/6,13:07,41-26.85N,141-34.48E,171,11.528,
789,2023/1/6,13:08,41-26.56N,141-34.55E,167,11.552,
790,2023/1/6,13:09,41-26.28N,141-34.65E,165,11.605,
791,2023/1/6,13:10,41-26.00N,141-34.75E,165,11.646,
792,2023/1/6,13:11,41-25.72N,141-34.84E,166,11.654,
793,2023/1/6,13:12,41-25.43N,141-34.93E,166,11.676,
794,2023/1/6,13:13,41-25.16N,141-35.01E,167,11.717,
795,2023/1/6,13:14,41-24.88N,141-35.09E,167,11.726,
796,2023/1/6,13:15,41-24.59N,141-35.17E,167,11.733,
797,2023/1/6,13:16,41-24.31N,141-35.26E,167,11.752,
798,2023/1/6,13:17,41-24.04N,141-35.34E,167,11.78,
799,2023/1/6,13:18,41-23.76N,141-35.42E,167,11.787,
800,2023/1/6,13:19,41-23.47N,141-35.51E,167,11.792,
801,2023/1/6,13:20,41-23.19N,141-35.59E,167,11.8,
802,2023/1/6,13:21,41-22.92N,141-35.67E,167,11.787,
803,2023/1/6,13:22,41-22.64N,141-35.76E,167,11.767,
804,2023/1/6,13:23,41-22.36N,141-35.84E,168,11.751,
805,2023/1/6,13:24,41-22.10N,141-35.91E,168,11.756,
806,2023/1/6,13:25,41-21.82N,141-35.99E,167,11.756,
807,2023/1/6,13:26,41-21.54N,141-36.07E,168,11.756,
808,2023/1/6,13:27,41-21.28N,141-36.14E,168,11.762,
809,2023/1/6,13:28,41-21.00N,141-36.22E,167,11.763,
810,2023/1/6,13:29,41-20.72N,141-36.30E,167,11.763,
811,2023/1/6,13:30,41-20.44N,141-36.38E,167,11.759,
812,2023/1/6,13:31,41-20.17N,141-36.46E,168,11.764,
813,2023/1/6,13:32,41-19.88N,141-36.54E,168,11.763,
814,2023/1/6,13:33,41-19.61N,141-36.61E,168,11.76,
815,2023/1/6,13:34,41-19.32N,141-36.69E,168,11.764,
816,2023/1/6,13:35,41-19.03N,141-36.77E,168,11.766,
817,2023/1/6,13:36,41-18.76N,141-36.84E,168,11.757,
818,2023/1/6,13:37,41-18.48N,141-36.91E,168,11.757,
819,2023/1/6,13:38,41-18.19N,141-36.99E,168,11.746,
820,2023/1/6,13:39,41-17.91N,141-37.06E,169,11.738,
821,2023/1/6,13:40,41-17.62N,141-37.13E,169,11.738,
822,2023/1/6,13:41,41-17.33N,141-37.21E,167,11.734,
823,2023/1/6,13:42,41-17.06N,141-37.29E,167,11.722,
824,2023/1/6,13:43,41-16.78N,141-37.38E,167,11.713,
825,2023/1/6,13:44,41-16.49N,141-37.46E,167,11.691,
826,2023/1/6,13:45,41-16.21N,141-37.54E,167,11.676,
827,2023/1/6,13:46,41-15.94N,141-37.62E,167,11.674,
828,2023/1/6,13:47,41-15.64N,141-37.70E,167,11.662,
829,2023/1/6,13:48,41-15.36N,141-37.78E,167,11.648,
830,2023/1/6,13:49,41-15.09N,141-37.86E,168,11.645,
831,2023/1/6,13:50,41-14.80N,141-37.94E,168,11.641,
832,2023/1/6,13:51,41-14.53N,141-38.01E,168,11.629,
833,2023/1/6,13:52,41-14.24N,141-38.09E,168,11.623,
834,2023/1/6,13:53,41-13.96N,141-38.16E,169,11.611,
835,2023/1/6,13:54,41-13.68N,141-38.23E,169,11.611,
836,2023/1/6,13:55,41-13.40N,141-38.31E,168,11.607,
837,2023/1/6,13:56,41-13.11N,141-38.38E,169,11.593,
838,2023/1/6,13:57,41-12.84N,141-38.44E,169,11.554,
839,2023/1/6,13:58,41-12.55N,141-38.51E,169,11.544,
840,2023/1/6,13:59,41-12.28N,141-38.58E,169,11.539,
841,2023/1/6,14:00,41-12.00N,141-38.65E,168,11.527,
842,2023/1/6,14:01,41-11.73N,141-38.72E,168,11.533,
843,2023/1/6,14:02,41-11.46N,141-38.80E,168,11.547,
844,2023/1/6,14:03,41-11.18N,141-38.87E,168,11.565,
845,2023/1/6,14:04,41-10.90N,141-38.94E,168,11.59,
846,2023/1/6,14:05,41-10.63N,141-39.02E,167,11.597,
847,2023/1/6,14:06,41-10.35N,141-39.10E,168,11.633,
848,2023/1/6,14:07,41-10.09N,141-39.17E,168,11.666,
849,2023/1/6,14:08,41-09.81N,141-39.24E,168,11.683,
850,2023/1/6,14:09,41-09.55N,141-39.31E,168,11.669,
851,2023/1/6,14:10,41-09.27N,141-39.39E,168,11.651,
852,2023/1/6,14:11,41-09.01N,141-39.46E,167,11.628,
853,2023/1/6,14:12,41-08.74N,141-39.54E,168,11.621,
854,2023/1/6,14:13,41-08.46N,141-39.62E,166,11.582,
855,2023/1/6,14:14,41-08.20N,141-39.71E,165,11.557,
856,2023/1/6,14:15,41-07.92N,141-39.80E,166,11.572,
857,2023/1/6,14:16,41-07.65N,141-39.88E,167,11.575,
858,2023/1/6,14:17,41-07.38N,141-39.96E,167,11.609,
859,2023/1/6,14:18,41-07.12N,141-40.05E,165,11.67,
860,2023/1/6,14:19,41-06.85N,141-40.14E,165,11.723,
861,2023/1/6,14:20,41-06.58N,141-40.23E,166,11.75,
862,2023/1/6,14:21,41-06.31N,141-40.31E,166,11.76,
863,2023/1/6,14:22,41-06.03N,141-40.40E,166,11.745,
864,2023/1/6,14:23,41-05.75N,141-40.48E,166,11.752,
865,2023/1/6,14:24,41-05.48N,141-40.57E,166,11.797,
866,2023/1/6,14:25,41-05.21N,141-40.66E,166,11.823,
867,2023/1/6,14:26,41-04.93N,141-40.75E,167,11.842,
868,2023/1/6,14:27,41-04.66N,141-40.82E,166,11.85,
869,2023/1/6,14:28,41-04.38N,141-40.91E,166,11.862,
870,2023/1/6,14:29,41-04.11N,141-40.99E,167,11.873,
871,2023/1/6,14:30,41-03.83N,141-41.07E,167,11.88,
872,2023/1/6,14:31,41-03.55N,141-41.15E,168,11.885,
873,2023/1/6,14:32,41-03.28N,141-41.23E,168,11.888,
874,2023/1/6,14:33,41-03.00N,141-41.30E,168,11.898,
875,2023/1/6,14:34,41-02.72N,141-41.38E,168,11.908,
876,2023/1/6,14:35,41-02.44N,141-41.46E,168,11.915,
877,2023/1/6,14:36,41-02.17N,141-41.53E,168,11.93,
878,2023/1/6,14:37,41-01.88N,141-41.60E,168,11.935,
879,2023/1/6,14:38,41-01.60N,141-41.68E,168,11.944,
880,2023/1/6,14:39,41-01.32N,141-41.76E,168,11.943,
881,2023/1/6,14:40,41-01.03N,141-41.84E,168,11.944,
882,2023/1/6,14:41,41-00.76N,141-41.91E,168,11.944,
883,2023/1/6,14:42,41-00.48N,141-41.98E,168,11.944,
884,2023/1/6,14:43,41-00.19N,141-42.06E,168,11.944,
885,2023/1/6,14:44,40-59.90N,141-42.14E,168,11.947,
886,2023/1/6,14:45,40-59.63N,141-42.21E,167,11.946,
887,2023/1/6,14:46,40-59.35N,141-42.30E,166,11.947,
888,2023/1/6,14:47,40-59.07N,141-42.39E,166,11.945,
889,2023/1/6,14:48,40-58.79N,141-42.48E,166,11.939,
890,2023/1/6,14:49,40-58.51N,141-42.57E,166,11.936,
891,2023/1/6,14:50,40-58.23N,141-42.66E,166,11.942,
892,2023/1/6,14:51,40-57.95N,141-42.74E,166,11.943,
893,2023/1/6,14:52,40-57.67N,141-42.83E,166,11.948,
894,2023/1/6,14:53,40-57.39N,141-42.92E,167,11.949,
895,2023/1/6,14:54,40-57.11N,141-43.01E,166,11.953,
896,2023/1/6,14:55,40-56.83N,141-43.09E,166,11.954,
897,2023/1/6,14:56,40-56.54N,141-43.18E,166,11.951,
898,2023/1/6,14:57,40-56.27N,141-43.27E,167,11.947,
899,2023/1/6,14:58,40-55.98N,141-43.36E,166,11.942,
900,2023/1/6,14:59,40-55.70N,141-43.44E,167,11.929,
901,2023/1/6,15:00,40-55.42N,141-43.52E,166,11.929,
902,2023/1/6,15:01,40-55.14N,141-43.61E,167,11.917,
903,2023/1/6,15:02,40-54.85N,141-43.69E,167,11.905,
904,2023/1/6,15:03,40-54.57N,141-43.78E,166,11.886,
905,2023/1/6,15:04,40-54.29N,141-43.86E,167,11.869,
906,2023/1/6,15:05,40-54.01N,141-43.95E,166,11.859,
907,2023/1/6,15:06,40-53.72N,141-44.03E,167,11.843,
908,2023/1/6,15:07,40-53.44N,141-44.11E,167,11.83,
909,2023/1/6,15:08,40-53.15N,141-44.19E,167,11.813,
910,2023/1/6,15:09,40-52.87N,141-44.27E,167,11.812,
911,2023/1/6,15:10,40-52.58N,141-44.35E,167,11.808,
912,2023/1/6,15:11,40-52.30N,141-44.43E,168,11.799,
913,2023/1/6,15:12,40-52.01N,141-44.51E,168,11.786,
914,2023/1/6,15:13,40-51.73N,141-44.59E,167,11.766,
915,2023/1/6,15:14,40-51.45N,141-44.68E,167,11.741,
916,2023/1/6,15:15,40-51.17N,141-44.75E,168,11.735,
917,2023/1/6,15:16,40-50.88N,141-44.83E,167,11.728,
918,2023/1/6,15:17,40-50.62N,141-44.91E,168,11.725,
919,2023/1/6,15:18,40-50.34N,141-44.99E,167,11.711,
920,2023/1/6,15:19,40-50.07N,141-45.07E,167,11.725,
921,2023/1/6,15:20,40-49.79N,141-45.14E,168,11.741,
922,2023/1/6,15:21,40-49.51N,141-45.22E,168,11.738,
923,2023/1/6,15:22,40-49.25N,141-45.29E,167,11.736,
924,2023/1/6,15:23,40-48.97N,141-45.37E,168,11.727,
925,2023/1/6,15:24,40-48.70N,141-45.46E,164,11.584,
926,2023/1/6,15:25,40-48.44N,141-45.55E,165,11.536,
927,2023/1/6,15:26,40-48.17N,141-45.64E,166,11.53,
928,2023/1/6,15:27,40-47.90N,141-45.72E,166,11.519,
929,2023/1/6,15:28,40-47.62N,141-45.82E,166,11.502,
930,2023/1/6,15:29,40-47.36N,141-45.90E,166,11.495,
931,2023/1/6,15:30,40-47.09N,141-45.99E,166,11.498,
932,2023/1/6,15:31,40-46.82N,141-46.08E,165,11.505,
933,2023/1/6,15:32,40-46.54N,141-46.17E,165,11.512,
934,2023/1/6,15:33,40-46.28N,141-46.26E,165,11.517,
935,2023/1/6,15:34,40-46.00N,141-46.35E,165,11.521,
936,2023/1/6,15:35,40-45.74N,141-46.43E,166,11.516,
937,2023/1/6,15:36,40-45.46N,141-46.51E,166,11.509,
938,2023/1/6,15:37,40-45.18N,141-46.60E,166,11.498,
939,2023/1/6,15:38,40-44.91N,141-46.69E,166,11.491,
940,2023/1/6,15:39,40-44.64N,141-46.78E,166,11.484,
941,2023/1/6,15:40,40-44.36N,141-46.86E,166,11.471,
942,2023/1/6,15:41,40-44.08N,141-46.95E,165,11.453,
943,2023/1/6,15:42,40-43.81N,141-47.04E,165,11.429,
944,2023/1/6,15:43,40-43.54N,141-47.13E,166,11.398,
945,2023/1/6,15:44,40-43.26N,141-47.22E,166,11.374,
946,2023/1/6,15:45,40-42.98N,141-47.31E,166,11.34,
947,2023/1/6,15:46,40-42.70N,141-47.40E,166,11.303,
948,2023/1/6,15:47,40-42.42N,141-47.48E,166,11.274,
949,2023/1/6,15:48,40-42.15N,141-47.57E,166,11.249,
950,2023/1/6,15:49,40-41.87N,141-47.66E,166,11.224,
951,2023/1/6,15:50,40-41.59N,141-47.75E,165,11.143,
952,2023/1/6,15:51,40-41.31N,141-47.84E,166,11.37,
953,2023/1/6,15:52,40-41.03N,141-47.93E,166,11.46,
954,2023/1/6,15:53,40-40.77N,141-48.02E,166,11.481,
955,2023/1/6,15:54,40-40.50N,141-48.10E,166,11.464,
956,2023/1/6,15:55,40-40.23N,141-48.18E,167,11.434,
957,2023/1/6,15:56,40-39.96N,141-48.26E,165,11.312,
958,2023/1/6,15:57,40-39.69N,141-48.36E,165,11.057,
959,2023/1/6,15:58,40-39.42N,141-48.45E,165,11.077,
960,2023/1/6,15:59,40-39.14N,141-48.54E,166,11.236,
961,2023/1/6,16:00,40-38.87N,141-48.62E,166,11.341,
962,2023/1/6,16:01,40-38.59N,141-48.71E,166,11.396,
963,2023/1/6,16:02,40-38.33N,141-48.80E,166,11.411,
964,2023/1/6,16:03,40-38.02N,141-48.90E,166,11.427,
965,2023/1/6,16:04,40-37.74N,141-48.99E,165,11.448,
966,2023/1/6,16:05,40-37.47N,141-49.07E,166,11.459,
967,2023/1/6,16:06,40-37.24N,141-49.15E,164,11.467,
968,2023/1/6,16:07,40-36.97N,141-49.25E,162,11.475,
969,2023/1/6,16:08,40-36.71N,141-49.37E,159,11.484,
970,2023/1/6,16:09,40-36.45N,141-49.51E,157,11.494,
971,2023/1/6,16:10,40-36.18N,141-49.64E,158,11.498,
972,2023/1/6,16:11,40-35.92N,141-49.78E,157,11.504,
973,2023/1/6,16:12,40-35.66N,141-49.92E,157,11.489,
974,2023/1/6,16:13,40-35.40N,141-50.05E,157,11.488,
975,2023/1/6,16:14,40-35.13N,141-50.20E,157,11.489,
976,2023/1/6,16:15,40-34.87N,141-50.34E,158,11.485,
977,2023/1/6,16:16,40-34.59N,141-50.48E,157,11.486,
978,2023/1/6,16:17,40-34.34N,141-50.61E,157,11.495,
979,2023/1/6,16:18,40-34.07N,141-50.76E,158,11.522,
980,2023/1/6,16:19,40-33.80N,141-50.89E,157,11.535,
981,2023/1/6,16:20,40-33.54N,141-51.04E,157,11.552,
982,2023/1/6,16:21,40-33.26N,141-51.18E,158,11.568,
983,2023/1/6,16:22,40-33.01N,141-51.32E,157,11.578,
984,2023/1/6,16:23,40-32.74N,141-51.45E,158,11.578,
985,2023/1/6,16:24,40-32.46N,141-51.58E,160,11.575,
986,2023/1/6,16:25,40-32.20N,141-51.69E,163,11.569,
987,2023/1/6,16:26,40-31.92N,141-51.80E,163,11.567,
988,2023/1/6,16:27,40-31.64N,141-51.91E,162,11.557,
989,2023/1/6,16:28,40-31.37N,141-52.02E,163,11.55,
990,2023/1/6,16:29,40-31.09N,141-52.12E,163,11.534,
991,2023/1/6,16:30,40-30.82N,141-52.23E,163,11.529,
992,2023/1/6,16:31,40-30.53N,141-52.34E,164,11.515,
993,2023/1/6,16:32,40-30.26N,141-52.43E,166,11.505,
994,2023/1/6,16:33,40-29.98N,141-52.51E,168,11.498,
995,2023/1/6,16:34,40-29.69N,141-52.57E,170,11.48,
996,2023/1/6,16:35,40-29.40N,141-52.63E,171,11.47,
997,2023/1/6,16:36,40-29.12N,141-52.68E,171,11.46,
998,2023/1/6,16:37,40-28.84N,141-52.74E,171,11.453,